Time,TemperatureF,DewpointF,PressureIn,WindDirection,WindDirectionDegrees,WindSpeedMPH,WindSpeedGustMPH,Humidity,HourlyPrecipIn,Conditions,Clouds,dailyrainin,SoftwareType,DateUTC
2013-02-13 00:00:00,45.1,34.0,23.24,NNE,17,1.0,3.0,65,0.00,,,0.00,VWS V13.01,2013-02-13 05:00:00,
2013-02-13 00:05:00,45.0,33.6,23.24,North,11,0.0,4.0,64,0.00,,,0.00,VWS V13.01,2013-02-13 05:05:00,
2013-02-13 00:10:00,45.0,33.6,23.24,NNW,346,2.0,4.0,64,0.00,,,0.00,VWS V13.01,2013-02-13 05:10:00,
2013-02-13 00:15:00,44.7,33.3,23.24,North,360,2.0,4.0,64,0.00,,,0.00,VWS V13.01,2013-02-13 05:15:00,
2013-02-13 00:20:00,44.5,33.5,23.24,North,5,0.0,2.0,65,0.00,,,0.00,VWS V13.01,2013-02-13 05:20:00,
2013-02-13 00:25:00,44.7,33.7,23.24,NNE,13,1.0,4.0,65,0.00,,,0.00,VWS V13.01,2013-02-13 05:25:00,
2013-02-13 00:30:00,44.7,33.3,23.24,NE,52,2.0,5.0,64,0.00,,,0.00,VWS V13.01,2013-02-13 05:30:00,
2013-02-13 00:35:00,44.6,33.2,23.24,North,360,0.0,6.0,64,0.00,,,0.00,VWS V13.01,2013-02-13 05:35:00,
2013-02-13 00:40:00,44.6,33.2,23.24,North,360,2.0,3.0,64,0.00,,,0.00,VWS V13.01,2013-02-13 05:40:00,
2013-02-13 00:45:00,44.5,33.5,23.24,North,360,2.0,3.0,65,0.00,,,0.00,VWS V13.01,2013-02-13 05:45:00,
2013-02-13 00:50:00,44.3,32.9,23.24,NNE,21,3.0,4.0,64,0.00,,,0.00,VWS V13.01,2013-02-13 05:50:00,
2013-02-13 00:55:00,44.0,33.0,23.24,NNE,19,5.0,5.0,65,0.00,,,0.00,VWS V13.01,2013-02-13 05:55:00,
2013-02-13 01:00:00,43.7,32.3,32.44,North,11,5.0,5.0,64,0.00,,,0.00,VWS V13.01,2013-02-13 06:00:00,
2013-02-13 01:05:00,43.3,32.0,32.44,NNE,18,0.0,4.0,64,0.00,,,0.00,VWS V13.01,2013-02-13 06:05:00,
2013-02-13 01:10:00,43.0,31.7,32.44,NNE,13,5.0,7.0,64,0.00,,,0.00,VWS V13.01,2013-02-13 06:10:00,
2013-02-13 01:15:00,43.1,32.5,32.44,NW,323,0.0,3.0,66,0.00,,,0.00,VWS V13.01,2013-02-13 06:15:00,
2013-02-13 01:20:00,42.8,31.5,23.24,North,5,1.0,9.0,64,0.00,,,0.00,VWS V13.01,2013-02-13 06:20:00,
2013-02-13 01:25:00,42.6,31.7,23.24,NNE,29,3.0,6.0,65,0.00,,,0.00,VWS V13.01,2013-02-13 06:25:00,
2013-02-13 01:30:00,42.6,32.0,23.24,NNE,26,0.0,3.0,66,0.00,,,0.00,VWS V13.01,2013-02-13 06:30:00,
2013-02-13 01:35:00,42.6,32.0,23.24,North,5,3.0,5.0,66,0.00,,,0.00,VWS V13.01,2013-02-13 06:35:00,
2013-02-13 01:40:00,42.5,32.0,23.24,North,5,0.0,5.0,66,0.00,,,0.00,VWS V13.01,2013-02-13 06:40:00,
2013-02-13 01:45:00,42.2,31.3,23.24,NNE,14,3.0,10.0,65,0.00,,,0.00,VWS V13.01,2013-02-13 06:45:00,
2013-02-13 01:50:00,42.0,31.1,23.24,North,355,3.0,7.0,65,0.00,,,0.00,VWS V13.01,2013-02-13 06:50:00,
2013-02-13 01:55:00,41.8,31.3,23.24,NNE,19,2.0,6.0,66,0.00,,,0.00,VWS V13.01,2013-02-13 06:55:00,
2013-02-13 02:00:00,41.6,31.5,23.24,North,11,2.0,6.0,67,0.00,,,0.00,VWS V13.01,2013-02-13 07:00:00,
2013-02-13 02:05:00,41.8,31.7,23.24,NNE,32,0.0,5.0,67,0.00,,,0.00,VWS V13.01,2013-02-13 07:05:00,
2013-02-13 02:10:00,41.7,31.6,23.24,NNE,14,0.0,6.0,67,0.00,,,0.00,VWS V13.01,2013-02-13 07:10:00,
2013-02-13 02:15:00,41.5,31.0,23.24,North,349,0.0,5.0,66,0.00,,,0.00,VWS V13.01,2013-02-13 07:15:00,
2013-02-13 02:20:00,41.6,31.5,23.24,North,5,0.0,4.0,67,0.00,,,0.00,VWS V13.01,2013-02-13 07:20:00,
2013-02-13 02:25:00,41.6,31.5,23.24,North,9,2.0,7.0,67,0.00,,,0.00,VWS V13.01,2013-02-13 07:25:00,
2013-02-13 02:30:00,41.1,30.6,23.24,NNE,29,3.0,7.0,66,0.00,,,0.00,VWS V13.01,2013-02-13 07:30:00,
2013-02-13 02:35:00,41.0,30.9,23.24,NNW,345,0.0,5.0,67,0.00,,,0.00,VWS V13.01,2013-02-13 07:35:00,
2013-02-13 02:40:00,41.3,31.5,23.53,North,5,4.0,4.0,68,0.00,,,0.00,VWS V13.01,2013-02-13 07:40:00,
2013-02-13 02:45:00,41.1,31.0,23.53,NNE,13,1.0,5.0,67,0.00,,,0.00,VWS V13.01,2013-02-13 07:45:00,
2013-02-13 02:50:00,41.1,31.0,23.53,NNW,345,1.0,5.0,67,0.00,,,0.00,VWS V13.01,2013-02-13 07:50:00,
2013-02-13 02:55:00,41.1,31.0,23.53,North,11,0.0,3.0,67,0.00,,,0.00,VWS V13.01,2013-02-13 07:55:00,
2013-02-13 03:00:00,41.0,30.9,23.24,NW,325,1.0,4.0,67,0.00,,,0.00,VWS V13.01,2013-02-13 08:00:00,
2013-02-13 03:05:00,41.1,31.0,23.24,North,349,3.0,3.0,67,0.00,,,0.00,VWS V13.01,2013-02-13 08:05:00,
2013-02-13 03:10:00,40.9,30.8,23.24,NNW,334,0.0,7.0,67,0.00,,,0.00,VWS V13.01,2013-02-13 08:10:00,
2013-02-13 03:15:00,40.9,31.2,24.51,NNW,340,2.0,4.0,68,0.00,,,0.00,VWS V13.01,2013-02-13 08:15:00,
2013-02-13 03:20:00,40.9,30.8,24.51,NNW,339,0.0,3.0,67,0.00,,,0.00,VWS V13.01,2013-02-13 08:20:00,
2013-02-13 03:25:00,40.9,30.8,24.51,North,355,1.0,5.0,67,0.00,,,0.00,VWS V13.01,2013-02-13 08:25:00,
2013-02-13 03:30:00,40.7,30.2,24.51,NW,319,2.0,6.0,66,0.00,,,0.00,VWS V13.01,2013-02-13 08:30:00,
2013-02-13 03:35:00,40.7,30.6,24.51,NW,323,2.0,3.0,67,0.00,,,0.00,VWS V13.01,2013-02-13 08:35:00,
2013-02-13 03:40:00,40.9,30.8,24.51,NNW,341,2.0,5.0,67,0.00,,,0.00,VWS V13.01,2013-02-13 08:40:00,
2013-02-13 03:45:00,40.8,30.7,24.51,North,360,1.0,5.0,67,0.00,,,0.00,VWS V13.01,2013-02-13 08:45:00,
2013-02-13 03:50:00,40.7,30.6,24.51,NNE,17,0.0,5.0,67,0.00,,,0.00,VWS V13.01,2013-02-13 08:50:00,
2013-02-13 03:55:00,40.7,31.0,24.51,NNE,29,1.0,3.0,68,0.00,,,0.00,VWS V13.01,2013-02-13 08:55:00,
2013-02-13 04:00:00,40.6,30.5,24.51,NW,322,3.0,5.0,67,0.00,,,0.00,VWS V13.01,2013-02-13 09:00:00,
2013-02-13 04:05:00,40.3,30.2,24.51,North,5,3.0,10.0,67,0.00,,,0.00,VWS V13.01,2013-02-13 09:05:00,
2013-02-13 04:10:00,40.3,30.6,22.49,NE,34,1.0,5.0,68,0.00,,,0.00,VWS V13.01,2013-02-13 09:10:00,
2013-02-13 04:15:00,40.5,30.8,22.49,NNE,17,0.0,3.0,68,0.00,,,0.00,VWS V13.01,2013-02-13 09:15:00,
2013-02-13 04:20:00,40.5,30.8,22.49,NNE,17,1.0,2.0,68,0.00,,,0.00,VWS V13.01,2013-02-13 09:20:00,
2013-02-13 04:25:00,40.5,30.8,25.04,North,360,3.0,3.0,68,0.00,,,0.00,VWS V13.01,2013-02-13 09:25:00,
2013-02-13 04:30:00,40.6,30.9,25.04,NNE,17,0.0,4.0,68,0.00,,,0.00,VWS V13.01,2013-02-13 09:30:00,
2013-02-13 04:35:00,40.3,30.6,25.04,NNE,22,0.0,4.0,68,0.00,,,0.00,VWS V13.01,2013-02-13 09:35:00,
2013-02-13 04:40:00,40.2,30.9,25.04,NNE,18,2.0,3.0,69,0.00,,,0.00,VWS V13.01,2013-02-13 09:40:00,
2013-02-13 04:45:00,40.0,30.7,25.04,NNE,19,0.0,2.0,69,0.00,,,0.00,VWS V13.01,2013-02-13 09:45:00,
2013-02-13 04:50:00,39.9,30.9,23.24,North,349,3.0,3.0,70,0.00,,,0.00,VWS V13.01,2013-02-13 09:50:00,
2013-02-13 04:55:00,39.9,30.6,23.24,NNW,338,0.0,2.0,69,0.00,,,0.00,VWS V13.01,2013-02-13 09:55:00,
2013-02-13 05:00:00,39.9,30.6,23.24,North,360,3.0,3.0,69,0.00,,,0.00,VWS V13.01,2013-02-13 10:00:00,
2013-02-13 05:05:00,39.7,30.4,22.49,North,5,1.0,1.0,69,0.00,,,0.00,VWS V13.01,2013-02-13 10:05:00,
2013-02-13 05:10:00,39.7,30.4,23.25,North,11,0.0,3.0,69,0.00,,,0.00,VWS V13.01,2013-02-13 10:10:00,
2013-02-13 05:15:00,39.7,30.4,23.24,North,5,0.0,3.0,69,0.00,,,0.00,VWS V13.01,2013-02-13 10:15:00,
2013-02-13 05:20:00,39.6,30.3,23.24,NNE,26,2.0,4.0,69,0.00,,,0.00,VWS V13.01,2013-02-13 10:20:00,
2013-02-13 05:25:00,39.6,30.6,23.24,North,350,3.0,5.0,70,0.00,,,0.00,VWS V13.01,2013-02-13 10:25:00,
2013-02-13 05:30:00,39.7,30.7,23.24,North,355,1.0,4.0,70,0.00,,,0.00,VWS V13.01,2013-02-13 10:30:00,
2013-02-13 05:35:00,39.6,30.3,23.24,North,349,0.0,2.0,69,0.00,,,0.00,VWS V13.01,2013-02-13 10:35:00,
2013-02-13 05:40:00,39.5,30.5,23.24,NW,305,0.0,4.0,70,0.00,,,0.00,VWS V13.01,2013-02-13 10:40:00,
2013-02-13 05:45:00,39.6,30.6,23.24,North,355,0.0,3.0,70,0.00,,,0.00,VWS V13.01,2013-02-13 10:45:00,
2013-02-13 05:50:00,39.7,30.4,23.54,North,360,0.0,4.0,69,0.00,,,0.00,VWS V13.01,2013-02-13 10:50:00,
2013-02-13 05:55:00,39.5,30.2,23.54,North,5,0.0,6.0,69,0.00,,,0.00,VWS V13.01,2013-02-13 10:55:00,
2013-02-13 06:00:00,39.9,30.6,23.54,NNW,333,2.0,3.0,69,0.00,,,0.00,VWS V13.01,2013-02-13 11:00:00,
2013-02-13 06:05:00,40.1,30.8,23.54,NNW,345,0.0,3.0,69,0.00,,,0.00,VWS V13.01,2013-02-13 11:05:00,
2013-02-13 06:10:00,40.0,30.7,23.54,NW,325,1.0,3.0,69,0.00,,,0.00,VWS V13.01,2013-02-13 11:10:00,
2013-02-13 06:15:00,40.1,30.8,23.54,NNW,342,0.0,3.0,69,0.00,,,0.00,VWS V13.01,2013-02-13 11:15:00,
2013-02-13 06:20:00,40.1,30.8,23.54,North,355,1.0,3.0,69,0.00,,,0.00,VWS V13.01,2013-02-13 11:20:00,
2013-02-13 06:25:00,40.0,30.3,23.54,NNW,346,3.0,10.0,68,0.00,,,0.00,VWS V13.01,2013-02-13 11:25:00,
2013-02-13 06:30:00,40.2,30.9,23.54,North,355,6.0,7.0,69,0.00,,,0.00,VWS V13.01,2013-02-13 11:30:00,
2013-02-13 06:35:00,39.9,30.2,23.24,NNE,15,2.0,6.0,68,0.00,,,0.00,VWS V13.01,2013-02-13 11:35:00,
2013-02-13 06:40:00,39.7,30.0,23.24,North,360,1.0,11.0,68,0.00,,,0.00,VWS V13.01,2013-02-13 11:40:00,
2013-02-13 06:45:00,39.7,30.7,23.24,North,11,1.0,5.0,70,0.00,,,0.00,VWS V13.01,2013-02-13 11:45:00,
2013-02-13 06:50:00,39.5,30.5,23.24,NNW,344,4.0,10.0,70,0.00,,,0.00,VWS V13.01,2013-02-13 11:50:00,
2013-02-13 06:55:00,39.8,30.8,23.24,NNE,19,0.0,7.0,70,0.00,,,0.00,VWS V13.01,2013-02-13 11:55:00,
2013-02-13 07:00:00,39.8,30.5,23.24,NNE,13,4.0,9.0,69,0.00,,,0.00,VWS V13.01,2013-02-13 12:00:00,
2013-02-13 07:05:00,39.9,30.6,23.26,NE,34,2.0,5.0,69,0.00,,,0.00,VWS V13.01,2013-02-13 12:05:00,
2013-02-13 07:10:00,39.8,30.5,23.26,NE,42,2.0,9.0,69,0.00,,,0.00,VWS V13.01,2013-02-13 12:10:00,
2013-02-13 07:15:00,39.4,30.1,23.26,NNE,22,4.0,6.0,69,0.00,,,0.00,VWS V13.01,2013-02-13 12:15:00,
2013-02-13 07:20:00,39.5,30.5,23.26,NE,35,4.0,5.0,70,0.00,,,0.00,VWS V13.01,2013-02-13 12:20:00,
2013-02-13 07:25:00,39.0,30.1,23.26,North,355,2.0,10.0,70,0.00,,,0.00,VWS V13.01,2013-02-13 12:25:00,
2013-02-13 07:30:00,39.1,30.2,23.26,North,11,3.0,5.0,70,0.00,,,0.00,VWS V13.01,2013-02-13 12:30:00,
2013-02-13 07:35:00,39.1,30.2,23.25,NE,36,5.0,7.0,70,0.00,,,0.00,VWS V13.01,2013-02-13 12:35:00,
2013-02-13 07:40:00,39.2,30.6,23.27,NNE,13,1.0,5.0,71,0.00,,,0.00,VWS V13.01,2013-02-13 12:40:00,
2013-02-13 07:45:00,39.4,30.8,23.27,NNE,17,3.0,4.0,71,0.00,,,0.00,VWS V13.01,2013-02-13 12:45:00,
2013-02-13 07:50:00,39.6,31.3,23.26,NNE,13,1.0,3.0,72,0.00,,,0.00,VWS V13.01,2013-02-13 12:50:00,
2013-02-13 07:55:00,40.1,31.5,23.26,NNE,13,0.0,4.0,71,0.00,,,0.00,VWS V13.01,2013-02-13 12:55:00,
2013-02-13 08:00:00,40.2,30.9,23.26,NNE,21,2.0,5.0,69,0.00,,,0.00,VWS V13.01,2013-02-13 13:00:00,
2013-02-13 08:05:00,40.4,31.4,23.27,NNE,19,0.0,2.0,70,0.00,,,0.00,VWS V13.01,2013-02-13 13:05:00,
2013-02-13 08:10:00,40.6,31.2,23.27,NE,53,1.0,4.0,69,0.00,,,0.00,VWS V13.01,2013-02-13 13:10:00,
2013-02-13 08:15:00,40.4,30.7,23.27,NE,46,4.0,5.0,68,0.00,,,0.00,VWS V13.01,2013-02-13 13:15:00,
2013-02-13 08:20:00,40.6,31.6,23.27,NE,56,0.0,3.0,70,0.00,,,0.00,VWS V13.01,2013-02-13 13:20:00,
2013-02-13 08:25:00,41.3,31.5,23.27,NNE,24,2.0,5.0,68,0.00,,,0.00,VWS V13.01,2013-02-13 13:25:00,
2013-02-13 08:30:00,41.4,31.3,23.27,North,355,3.0,6.0,67,0.00,,,0.00,VWS V13.01,2013-02-13 13:30:00,
2013-02-13 08:35:00,40.9,30.8,23.27,NNE,30,2.0,6.0,67,0.00,,,0.00,VWS V13.01,2013-02-13 13:35:00,
2013-02-13 08:40:00,40.7,30.6,23.27,North,10,6.0,10.0,67,0.00,,,0.00,VWS V13.01,2013-02-13 13:40:00,
2013-02-13 08:45:00,40.5,30.4,23.27,NNW,342,2.0,7.0,67,0.00,,,0.00,VWS V13.01,2013-02-13 13:45:00,
2013-02-13 08:50:00,40.7,31.0,23.27,NNE,13,8.0,9.0,68,0.00,,,0.00,VWS V13.01,2013-02-13 13:50:00,
2013-02-13 08:55:00,41.1,31.4,23.27,North,355,3.0,9.0,68,0.00,,,0.00,VWS V13.01,2013-02-13 13:55:00,
2013-02-13 09:00:00,41.5,31.0,23.27,North,355,3.0,7.0,66,0.00,,,0.00,VWS V13.01,2013-02-13 14:00:00,
2013-02-13 09:05:00,41.3,30.8,23.27,North,360,0.0,9.0,66,0.00,,,0.00,VWS V13.01,2013-02-13 14:05:00,
2013-02-13 09:10:00,41.7,31.2,23.27,NE,34,8.0,11.0,66,0.00,,,0.00,VWS V13.01,2013-02-13 14:10:00,
2013-02-13 09:15:00,41.6,31.5,23.27,North,11,11.0,13.0,67,0.00,,,0.00,VWS V13.01,2013-02-13 14:15:00,
2013-02-13 09:20:00,41.5,31.4,23.27,NNE,12,7.0,10.0,67,0.00,,,0.00,VWS V13.01,2013-02-13 14:20:00,
2013-02-13 09:25:00,41.6,30.7,23.27,NNE,21,6.0,11.0,65,0.00,,,0.00,VWS V13.01,2013-02-13 14:25:00,
2013-02-13 09:31:00,41.6,31.1,23.27,NNE,22,5.0,7.0,66,0.00,,,0.00,VWS V13.01,2013-02-13 14:31:00,
2013-02-13 09:36:00,41.8,31.3,23.27,NNE,31,2.0,7.0,66,0.00,,,0.00,VWS V13.01,2013-02-13 14:36:00,
2013-02-13 09:41:00,42.3,31.4,23.27,NNE,16,7.0,9.0,65,0.00,,,0.00,VWS V13.01,2013-02-13 14:41:00,
2013-02-13 09:46:00,42.0,31.5,23.27,NE,36,3.0,6.0,66,0.00,,,0.00,VWS V13.01,2013-02-13 14:46:00,
2013-02-13 09:51:00,42.5,32.0,23.27,NNW,344,3.0,5.0,66,0.00,,,0.00,VWS V13.01,2013-02-13 14:51:00,
2013-02-13 09:56:00,42.4,31.5,23.27,North,5,3.0,7.0,65,0.00,,,0.00,VWS V13.01,2013-02-13 14:56:00,
2013-02-13 10:01:00,43.0,32.4,23.27,North,360,2.0,3.0,66,0.00,,,0.00,VWS V13.01,2013-02-13 15:01:00,
2013-02-13 10:06:00,42.8,31.5,23.27,North,351,4.0,5.0,64,0.00,,,0.00,VWS V13.01,2013-02-13 15:06:00,
2013-02-13 10:11:00,42.7,31.4,23.27,North,11,2.0,6.0,64,0.00,,,0.00,VWS V13.01,2013-02-13 15:11:00,
2013-02-13 10:16:00,42.7,31.4,23.27,North,355,3.0,5.0,64,0.00,,,0.00,VWS V13.01,2013-02-13 15:16:00,
2013-02-13 10:21:00,42.8,31.5,23.27,NE,38,2.0,6.0,64,0.00,,,0.00,VWS V13.01,2013-02-13 15:21:00,
2013-02-13 10:26:00,43.1,32.2,23.27,North,360,2.0,7.0,65,0.00,,,0.00,VWS V13.01,2013-02-13 15:26:00,
2013-02-13 10:31:00,43.3,32.0,23.27,NE,40,1.0,5.0,64,0.00,,,0.00,VWS V13.01,2013-02-13 15:31:00,
2013-02-13 10:36:00,43.2,32.2,23.27,NNE,20,4.0,7.0,65,0.00,,,0.00,VWS V13.01,2013-02-13 15:36:00,
2013-02-13 10:41:00,43.2,32.6,23.27,NNW,338,2.0,6.0,66,0.00,,,0.00,VWS V13.01,2013-02-13 15:41:00,
2013-02-13 10:46:00,43.5,32.5,32.45,NNW,344,3.0,6.0,65,0.00,,,0.00,VWS V13.01,2013-02-13 15:46:00,
2013-02-13 10:51:00,43.1,31.4,32.45,NE,38,2.0,6.0,63,0.00,,,0.00,VWS V13.01,2013-02-13 15:51:00,
2013-02-13 10:56:00,43.3,31.6,32.45,NNE,20,3.0,7.0,63,0.00,,,0.00,VWS V13.01,2013-02-13 15:56:00,
2013-02-13 11:01:00,43.9,32.5,32.45,NNE,15,4.0,7.0,64,0.00,,,0.00,VWS V13.01,2013-02-13 16:01:00,
2013-02-13 11:06:00,44.6,33.2,32.45,ESE,110,1.0,10.0,64,0.00,,,0.00,VWS V13.01,2013-02-13 16:06:00,
2013-02-13 11:11:00,44.6,32.4,32.45,NE,34,2.0,7.0,62,0.00,,,0.00,VWS V13.01,2013-02-13 16:11:00,
2013-02-13 11:16:00,45.0,33.2,31.69,North,5,4.0,6.0,63,0.00,,,0.00,VWS V13.01,2013-02-13 16:16:00,
2013-02-13 11:21:00,45.0,32.8,32.45,NNE,19,4.0,10.0,62,0.00,,,0.00,VWS V13.01,2013-02-13 16:21:00,
2013-02-13 11:26:00,45.0,32.8,32.45,NNE,14,4.0,9.0,62,0.00,,,0.00,VWS V13.01,2013-02-13 16:26:00,
2013-02-13 11:31:00,45.1,33.3,32.45,NE,45,2.0,11.0,63,0.00,,,0.00,VWS V13.01,2013-02-13 16:31:00,
2013-02-13 11:36:00,45.9,33.2,32.45,NE,37,4.0,9.0,61,0.00,,,0.00,VWS V13.01,2013-02-13 16:36:00,
2013-02-13 11:41:00,46.1,33.8,32.45,ENE,76,5.0,10.0,62,0.00,,,0.00,VWS V13.01,2013-02-13 16:41:00,
2013-02-13 11:46:00,46.2,33.9,32.45,NE,53,4.0,9.0,62,0.00,,,0.00,VWS V13.01,2013-02-13 16:46:00,
2013-02-13 11:51:00,46.9,33.8,32.45,ESE,103,4.0,9.0,60,0.00,,,0.00,VWS V13.01,2013-02-13 16:51:00,
2013-02-13 11:56:00,47.3,34.1,32.45,NNE,24,3.0,12.0,60,0.00,,,0.00,VWS V13.01,2013-02-13 16:56:00,
2013-02-13 12:01:00,47.8,34.2,31.69,East,82,4.0,6.0,59,0.00,,,0.00,VWS V13.01,2013-02-13 17:01:00,
2013-02-13 12:06:00,47.3,33.7,31.69,ENE,57,5.0,11.0,59,0.00,,,0.00,VWS V13.01,2013-02-13 17:06:00,
2013-02-13 12:11:00,47.2,34.0,31.69,East,83,3.0,9.0,60,0.00,,,0.00,VWS V13.01,2013-02-13 17:11:00,
2013-02-13 12:16:00,47.8,34.6,31.69,NNW,348,1.0,5.0,60,0.00,,,0.00,VWS V13.01,2013-02-13 17:16:00,
2013-02-13 12:21:00,47.7,34.1,31.69,East,79,4.0,8.0,59,0.00,,,0.00,VWS V13.01,2013-02-13 17:21:00,
2013-02-13 12:26:00,46.9,34.2,31.69,ENE,69,5.0,6.0,61,0.00,,,0.00,VWS V13.01,2013-02-13 17:26:00,
2013-02-13 12:31:00,46.9,33.8,31.69,NE,52,5.0,6.0,60,0.00,,,0.00,VWS V13.01,2013-02-13 17:31:00,
2013-02-13 12:36:00,46.9,33.8,31.69,ENE,71,1.0,6.0,60,0.00,,,0.00,VWS V13.01,2013-02-13 17:36:00,
2013-02-13 12:41:00,47.4,34.6,31.69,NE,36,5.0,7.0,61,0.00,,,0.00,VWS V13.01,2013-02-13 17:41:00,
2013-02-13 12:46:00,47.3,34.1,31.69,ENE,58,0.0,6.0,60,0.00,,,0.00,VWS V13.01,2013-02-13 17:46:00,
2013-02-13 12:51:00,47.3,34.5,31.69,ENE,62,3.0,8.0,61,0.00,,,0.00,VWS V13.01,2013-02-13 17:51:00,
2013-02-13 12:56:00,47.0,33.8,31.69,East,84,3.0,3.0,60,0.00,,,0.00,VWS V13.01,2013-02-13 17:56:00,
2013-02-13 13:01:00,47.2,34.9,31.69,NNE,25,2.0,2.0,62,0.00,,,0.00,VWS V13.01,2013-02-13 18:01:00,
2013-02-13 13:06:00,47.5,34.7,31.69,East,94,2.0,2.0,61,0.00,,,0.00,VWS V13.01,2013-02-13 18:06:00,
2013-02-13 13:11:00,47.8,35.0,31.69,NE,44,2.0,2.0,61,0.00,,,0.00,VWS V13.01,2013-02-13 18:11:00,
2013-02-13 13:16:00,47.9,34.7,31.69,ENE,66,4.0,4.0,60,0.00,,,0.00,VWS V13.01,2013-02-13 18:16:00,
2013-02-13 13:21:00,48.0,35.2,31.69,ENE,65,1.0,1.0,61,0.00,,,0.00,VWS V13.01,2013-02-13 18:21:00,
2013-02-13 13:26:00,48.6,35.4,31.69,NE,40,5.0,5.0,60,0.00,,,0.00,VWS V13.01,2013-02-13 18:26:00,
2013-02-13 13:31:00,48.8,36.0,31.69,NNE,19,3.0,4.0,61,0.00,,,0.00,VWS V13.01,2013-02-13 18:31:00,
2013-02-13 13:36:00,48.5,35.7,31.69,ENE,78,2.0,2.0,61,0.00,,,0.00,VWS V13.01,2013-02-13 18:36:00,
2013-02-13 13:41:00,48.7,35.9,31.69,NW,317,2.0,3.0,61,0.00,,,0.00,VWS V13.01,2013-02-13 18:41:00,
2013-02-13 13:46:00,48.8,35.5,31.69,NW,319,2.0,2.0,60,0.00,,,0.00,VWS V13.01,2013-02-13 18:46:00,
2013-02-13 13:51:00,48.8,35.5,31.69,NE,44,5.0,6.0,60,0.00,,,0.00,VWS V13.01,2013-02-13 18:51:00,
2013-02-13 13:56:00,48.6,35.4,31.69,NNE,12,4.0,4.0,60,0.00,,,0.00,VWS V13.01,2013-02-13 18:56:00,
2013-02-13 14:01:00,48.3,35.5,31.69,NNW,334,3.0,3.0,61,0.00,,,0.00,VWS V13.01,2013-02-13 19:01:00,
2013-02-13 14:06:00,48.7,36.7,31.69,NNE,28,2.0,2.0,63,0.00,,,0.00,VWS V13.01,2013-02-13 19:06:00,
2013-02-13 14:11:00,48.7,35.9,31.69,NNW,338,2.0,3.0,61,0.00,,,0.00,VWS V13.01,2013-02-13 19:11:00,
2013-02-13 14:16:00,48.5,36.1,31.69,North,9,1.0,1.0,62,0.00,,,0.00,VWS V13.01,2013-02-13 19:16:00,
2013-02-13 14:21:00,48.8,37.2,32.45,North,11,1.0,1.0,64,0.00,,,0.00,VWS V13.01,2013-02-13 19:21:00,
2013-02-13 14:26:00,49.2,36.8,32.45,North,9,0.0,1.0,62,0.00,,,0.00,VWS V13.01,2013-02-13 19:26:00,
2013-02-13 14:31:00,49.1,36.7,32.45,North,360,0.0,0.0,62,0.00,,,0.00,VWS V13.01,2013-02-13 19:31:00,
2013-02-13 14:36:00,48.3,37.1,32.45,NNE,14,6.0,6.0,65,0.00,,,0.00,VWS V13.01,2013-02-13 19:36:00,
2013-02-13 14:41:00,47.5,38.2,32.45,North,351,3.0,3.0,70,0.00,,,0.00,VWS V13.01,2013-02-13 19:41:00,
2013-02-13 14:46:00,47.3,38.0,32.45,North,355,0.0,0.0,70,0.00,,,0.00,VWS V13.01,2013-02-13 19:46:00,
2013-02-13 14:51:00,47.2,37.6,32.45,NNW,347,3.0,3.0,69,0.00,,,0.00,VWS V13.01,2013-02-13 19:51:00,
2013-02-13 14:56:00,47.2,38.7,32.45,NNW,347,2.0,2.0,72,0.00,,,0.00,VWS V13.01,2013-02-13 19:56:00,
2013-02-13 15:01:00,47.4,38.5,32.45,NNW,346,1.0,1.0,71,0.00,,,0.00,VWS V13.01,2013-02-13 20:01:00,
2013-02-13 15:06:00,47.2,38.3,32.45,NE,41,1.0,1.0,71,0.00,,,0.00,VWS V13.01,2013-02-13 20:06:00,
2013-02-13 15:11:00,47.0,38.5,32.45,NNE,29,2.0,3.0,72,0.00,,,0.00,VWS V13.01,2013-02-13 20:11:00,
2013-02-13 15:16:00,47.1,38.9,32.45,NNW,338,0.0,1.0,73,0.00,,,0.00,VWS V13.01,2013-02-13 20:16:00,
2013-02-13 15:21:00,47.1,38.9,32.45,North,355,1.0,1.0,73,0.00,,,0.00,VWS V13.01,2013-02-13 20:21:00,
2013-02-13 15:26:00,46.8,38.3,32.45,North,360,3.0,4.0,72,0.00,,,0.00,VWS V13.01,2013-02-13 20:26:00,
2013-02-13 15:31:00,46.7,38.5,32.45,North,5,2.0,2.0,73,0.00,,,0.00,VWS V13.01,2013-02-13 20:31:00,
2013-02-13 15:36:00,46.9,38.7,32.45,North,11,3.0,3.0,73,0.00,,,0.00,VWS V13.01,2013-02-13 20:36:00,
2013-02-13 15:41:00,46.7,38.2,32.45,North,10,0.0,0.0,72,0.00,,,0.00,VWS V13.01,2013-02-13 20:41:00,
2013-02-13 15:46:00,46.7,38.2,32.45,North,349,0.0,2.0,72,0.00,,,0.00,VWS V13.01,2013-02-13 20:46:00,
2013-02-13 15:51:00,46.4,38.2,32.45,North,350,0.0,2.0,73,0.00,,,0.00,VWS V13.01,2013-02-13 20:51:00,
2013-02-13 15:56:00,45.9,37.8,32.45,North,355,0.0,0.0,73,0.00,,,0.00,VWS V13.01,2013-02-13 20:56:00,
2013-02-13 16:01:00,45.8,38.0,32.45,NE,42,5.0,6.0,74,0.00,,,0.00,VWS V13.01,2013-02-13 21:01:00,
2013-02-13 16:06:00,45.4,37.6,32.45,North,360,3.0,5.0,74,0.00,,,0.00,VWS V13.01,2013-02-13 21:06:00,
2013-02-13 16:11:00,45.0,37.9,32.45,North,360,2.0,2.0,76,0.00,,,0.00,VWS V13.01,2013-02-13 21:11:00,
2013-02-13 16:16:00,45.0,38.2,32.45,NNE,31,1.0,3.0,77,0.00,,,0.00,VWS V13.01,2013-02-13 21:16:00,
2013-02-13 16:21:00,44.7,38.6,32.45,NNE,28,2.0,2.0,79,0.00,,,0.00,VWS V13.01,2013-02-13 21:21:00,
2013-02-13 16:26:00,44.7,38.9,32.45,NNE,18,2.0,3.0,80,0.01,,,0.01,VWS V13.01,2013-02-13 21:26:00,
2013-02-13 16:31:00,44.5,38.7,32.45,North,360,0.0,0.0,80,0.01,,,0.01,VWS V13.01,2013-02-13 21:31:00,
2013-02-13 16:36:00,44.6,39.1,32.45,North,5,1.0,1.0,81,0.01,,,0.01,VWS V13.01,2013-02-13 21:36:00,
2013-02-13 16:41:00,44.9,39.8,32.45,North,5,0.0,0.0,82,0.02,,,0.02,VWS V13.01,2013-02-13 21:41:00,
2013-02-13 16:46:00,45.0,39.8,32.45,North,5,0.0,0.0,82,0.02,,,0.02,VWS V13.01,2013-02-13 21:46:00,
2013-02-13 16:51:00,44.9,39.8,32.45,North,9,1.0,2.0,82,0.02,,,0.02,VWS V13.01,2013-02-13 21:51:00,
2013-02-13 16:56:00,44.7,39.5,32.45,North,9,0.0,0.0,82,0.02,,,0.02,VWS V13.01,2013-02-13 21:56:00,
2013-02-13 17:01:00,44.4,39.6,32.45,North,9,0.0,0.0,83,0.02,,,0.02,VWS V13.01,2013-02-13 22:01:00,
2013-02-13 17:06:00,44.1,39.3,32.45,North,9,0.0,0.0,83,0.02,,,0.02,VWS V13.01,2013-02-13 22:06:00,
2013-02-13 17:11:00,43.8,39.3,32.45,North,9,0.0,0.0,84,0.03,,,0.03,VWS V13.01,2013-02-13 22:11:00,
2013-02-13 17:16:00,43.7,39.2,32.45,North,9,0.0,0.0,84,0.03,,,0.03,VWS V13.01,2013-02-13 22:16:00,
2013-02-13 17:21:00,43.7,39.5,32.45,North,9,0.0,1.0,85,0.04,,,0.04,VWS V13.01,2013-02-13 22:21:00,
2013-02-13 17:26:00,43.5,39.3,32.45,North,9,0.0,0.0,85,0.04,,,0.04,VWS V13.01,2013-02-13 22:26:00,
2013-02-13 17:31:00,43.5,39.6,32.45,North,9,0.0,0.0,86,0.04,,,0.05,VWS V13.01,2013-02-13 22:31:00,
2013-02-13 17:36:00,43.6,39.7,32.45,North,9,0.0,0.0,86,0.05,,,0.06,VWS V13.01,2013-02-13 22:36:00,
2013-02-13 17:41:00,43.4,39.5,32.45,NW,309,0.0,1.0,86,0.05,,,0.06,VWS V13.01,2013-02-13 22:41:00,
2013-02-13 17:46:00,43.1,39.2,32.45,NW,311,1.0,1.0,86,0.05,,,0.07,VWS V13.01,2013-02-13 22:46:00,
2013-02-13 17:51:00,43.1,39.2,32.45,NW,310,0.0,0.0,86,0.06,,,0.08,VWS V13.01,2013-02-13 22:51:00,
2013-02-13 17:56:00,43.0,39.1,32.45,NW,310,1.0,2.0,86,0.06,,,0.08,VWS V13.01,2013-02-13 22:56:00,
2013-02-13 18:01:00,42.5,38.3,32.45,WNW,288,3.0,3.0,85,0.06,,,0.08,VWS V13.01,2013-02-13 23:01:00,
2013-02-13 18:06:00,42.2,38.3,32.45,WNW,291,1.0,3.0,86,0.06,,,0.08,VWS V13.01,2013-02-13 23:06:00,
2013-02-13 18:11:00,41.7,37.8,32.45,West,280,9.0,10.0,86,0.06,,,0.08,VWS V13.01,2013-02-13 23:11:00,
2013-02-13 18:16:00,41.4,37.8,32.45,NW,307,2.0,3.0,87,0.06,,,0.09,VWS V13.01,2013-02-13 23:16:00,
2013-02-13 18:21:00,40.9,37.3,32.45,WNW,294,0.0,1.0,87,0.06,,,0.09,VWS V13.01,2013-02-13 23:21:00,
2013-02-13 18:26:00,40.6,37.0,32.45,WNW,291,2.0,2.0,87,0.05,,,0.10,VWS V13.01,2013-02-13 23:26:00,
2013-02-13 18:31:00,40.5,36.9,32.45,NW,310,6.0,6.0,87,0.06,,,0.10,VWS V13.01,2013-02-13 23:31:00,
2013-02-13 18:36:00,40.1,36.5,31.70,WNW,296,4.0,6.0,87,0.05,,,0.10,VWS V13.01,2013-02-13 23:36:00,
2013-02-13 18:41:00,39.8,36.2,31.70,WNW,298,5.0,5.0,87,0.04,,,0.10,VWS V13.01,2013-02-13 23:41:00,
2013-02-13 18:46:00,40.0,36.7,31.70,WNW,284,3.0,5.0,88,0.05,,,0.11,VWS V13.01,2013-02-13 23:46:00,
2013-02-13 18:51:00,39.8,36.5,32.45,WNW,286,0.0,1.0,88,0.04,,,0.11,VWS V13.01,2013-02-13 23:51:00,
2013-02-13 18:56:00,39.6,36.1,32.45,NW,312,4.0,5.0,87,0.03,,,0.11,VWS V13.01,2013-02-13 23:56:00,
2013-02-13 19:01:00,39.5,36.2,32.45,NW,307,5.0,6.0,88,0.03,,,0.11,VWS V13.01,2013-02-14 00:01:00,
2013-02-13 19:06:00,39.3,36.0,32.45,NW,317,6.0,6.0,88,0.04,,,0.12,VWS V13.01,2013-02-14 00:06:00,
2013-02-13 19:11:00,39.3,36.0,31.69,West,263,5.0,5.0,88,0.04,,,0.12,VWS V13.01,2013-02-14 00:11:00,
2013-02-13 19:16:00,39.2,36.0,31.69,WNW,284,2.0,2.0,88,0.04,,,0.12,VWS V13.01,2013-02-14 00:16:00,
2013-02-13 19:21:00,39.3,36.0,31.69,WNW,290,4.0,4.0,88,0.04,,,0.13,VWS V13.01,2013-02-14 00:21:00,
2013-02-13 19:26:00,39.2,36.0,31.69,WNW,287,2.0,6.0,88,0.04,,,0.13,VWS V13.01,2013-02-14 00:26:00,
2013-02-13 19:31:00,38.7,35.5,31.69,West,271,4.0,5.0,88,0.04,,,0.13,VWS V13.01,2013-02-14 00:31:00,
2013-02-13 19:36:00,38.6,35.4,31.69,West,277,9.0,9.0,88,0.03,,,0.13,VWS V13.01,2013-02-14 00:36:00,
2013-02-13 19:41:00,38.3,35.1,31.69,West,281,3.0,4.0,88,0.04,,,0.14,VWS V13.01,2013-02-14 00:41:00,
2013-02-13 19:46:00,38.3,35.1,31.69,WNW,292,5.0,5.0,88,0.04,,,0.14,VWS V13.01,2013-02-14 00:46:00,
2013-02-13 19:51:00,38.3,35.3,31.69,WNW,284,3.0,5.0,89,0.04,,,0.15,VWS V13.01,2013-02-14 00:51:00,
2013-02-13 19:56:00,38.3,35.3,31.69,West,279,5.0,5.0,89,0.04,,,0.15,VWS V13.01,2013-02-14 00:56:00,
2013-02-13 20:01:00,38.2,35.2,31.69,West,272,5.0,6.0,89,0.04,,,0.15,VWS V13.01,2013-02-14 01:01:00,
2013-02-13 20:06:00,37.9,35.0,31.69,WNW,291,3.0,4.0,89,0.05,,,0.16,VWS V13.01,2013-02-14 01:06:00,
2013-02-13 20:11:00,37.9,35.0,31.69,WNW,298,3.0,3.0,89,0.04,,,0.16,VWS V13.01,2013-02-14 01:11:00,
2013-02-13 20:16:00,37.6,34.7,31.69,West,281,2.0,5.0,89,0.04,,,0.16,VWS V13.01,2013-02-14 01:16:00,
2013-02-13 20:21:00,37.5,34.6,31.69,West,272,1.0,3.0,89,0.04,,,0.16,VWS V13.01,2013-02-14 01:21:00,
2013-02-13 20:26:00,37.6,34.7,31.69,WNW,282,4.0,4.0,89,0.03,,,0.16,VWS V13.01,2013-02-14 01:26:00,
2013-02-13 20:31:00,37.5,34.6,31.69,West,263,2.0,2.0,89,0.04,,,0.17,VWS V13.01,2013-02-14 01:31:00,
2013-02-13 20:36:00,37.5,34.6,31.69,WNW,292,3.0,5.0,89,0.04,,,0.17,VWS V13.01,2013-02-14 01:36:00,
2013-02-13 20:41:00,37.3,34.4,31.69,WNW,284,2.0,3.0,89,0.04,,,0.17,VWS V13.01,2013-02-14 01:41:00,
2013-02-13 20:46:00,37.4,34.5,31.69,West,274,1.0,2.0,89,0.03,,,0.17,VWS V13.01,2013-02-14 01:46:00,
2013-02-13 20:51:00,37.3,34.4,31.69,West,265,5.0,5.0,89,0.03,,,0.17,VWS V13.01,2013-02-14 01:51:00,
2013-02-13 20:56:00,37.0,34.1,31.69,WSW,248,5.0,5.0,89,0.03,,,0.18,VWS V13.01,2013-02-14 01:56:00,
2013-02-13 21:01:00,36.9,34.0,31.69,WSW,242,3.0,4.0,89,0.03,,,0.18,VWS V13.01,2013-02-14 02:01:00,
2013-02-13 21:06:00,37.0,34.3,31.69,West,270,2.0,3.0,90,0.03,,,0.18,VWS V13.01,2013-02-14 02:06:00,
2013-02-13 21:11:00,37.3,34.6,31.69,West,275,1.0,2.0,90,0.02,,,0.18,VWS V13.01,2013-02-14 02:11:00,
2013-02-13 21:16:00,37.2,34.3,31.69,WSW,249,3.0,4.0,89,0.02,,,0.18,VWS V13.01,2013-02-14 02:16:00,
2013-02-13 21:21:00,37.2,34.3,31.69,WSW,246,2.0,4.0,89,0.02,,,0.18,VWS V13.01,2013-02-14 02:21:00,
2013-02-13 21:26:00,37.1,34.4,31.69,WNW,284,2.0,3.0,90,0.02,,,0.18,VWS V13.01,2013-02-14 02:26:00,
2013-02-13 21:31:00,37.0,34.3,31.69,WSW,257,2.0,4.0,90,0.02,,,0.18,VWS V13.01,2013-02-14 02:31:00,
2013-02-13 21:36:00,36.8,33.9,31.69,West,272,6.0,6.0,89,0.01,,,0.18,VWS V13.01,2013-02-14 02:36:00,
2013-02-13 21:41:00,36.5,33.8,31.69,West,270,1.0,5.0,90,0.01,,,0.18,VWS V13.01,2013-02-14 02:41:00,
2013-02-13 21:46:00,36.6,34.0,31.69,WSW,244,3.0,4.0,90,0.01,,,0.18,VWS V13.01,2013-02-14 02:46:00,
2013-02-13 21:51:00,36.5,33.8,31.69,WSW,250,2.0,4.0,90,0.02,,,0.19,VWS V13.01,2013-02-14 02:51:00,
2013-02-13 21:56:00,36.6,34.0,31.69,WSW,243,3.0,5.0,90,0.02,,,0.19,VWS V13.01,2013-02-14 02:56:00,
2013-02-13 22:01:00,36.6,34.0,31.69,West,277,2.0,3.0,90,0.01,,,0.19,VWS V13.01,2013-02-14 03:01:00,
2013-02-13 22:06:00,36.5,33.8,31.69,NW,320,5.0,6.0,90,0.01,,,0.19,VWS V13.01,2013-02-14 03:06:00,
2013-02-13 22:11:00,36.6,34.0,31.69,West,276,2.0,3.0,90,0.01,,,0.19,VWS V13.01,2013-02-14 03:11:00,
2013-02-13 22:16:00,36.7,34.0,31.69,West,273,3.0,4.0,90,0.01,,,0.19,VWS V13.01,2013-02-14 03:16:00,
2013-02-13 22:21:00,36.8,34.2,31.69,WNW,283,1.0,3.0,90,0.01,,,0.19,VWS V13.01,2013-02-14 03:21:00,
2013-02-13 22:26:00,37.1,34.4,31.69,West,269,5.0,5.0,90,0.01,,,0.19,VWS V13.01,2013-02-14 03:26:00,
2013-02-13 22:31:00,37.1,34.4,31.69,WNW,292,0.0,1.0,90,0.01,,,0.19,VWS V13.01,2013-02-14 03:31:00,
2013-02-13 22:36:00,37.3,34.6,31.69,WNW,296,4.0,4.0,90,0.01,,,0.19,VWS V13.01,2013-02-14 03:36:00,
2013-02-13 22:41:00,37.4,34.7,31.69,West,263,1.0,2.0,90,0.01,,,0.19,VWS V13.01,2013-02-14 03:41:00,
2013-02-13 22:46:00,37.3,34.4,32.44,West,264,3.0,4.0,89,0.01,,,0.19,VWS V13.01,2013-02-14 03:46:00,
2013-02-13 22:51:00,37.2,34.5,32.44,West,265,2.0,2.0,90,0.01,,,0.19,VWS V13.01,2013-02-14 03:51:00,
2013-02-13 22:57:00,37.2,34.3,32.44,WSW,253,0.0,2.0,89,0.00,,,0.19,VWS V13.01,2013-02-14 03:57:00,
2013-02-13 23:02:00,37.2,34.5,32.44,WSW,246,2.0,5.0,90,0.00,,,0.19,VWS V13.01,2013-02-14 04:02:00,
2013-02-13 23:07:00,37.3,34.6,32.44,West,267,3.0,4.0,90,0.00,,,0.19,VWS V13.01,2013-02-14 04:07:00,
2013-02-13 23:12:00,37.4,34.7,32.45,West,275,4.0,4.0,90,0.00,,,0.19,VWS V13.01,2013-02-14 04:12:00,
2013-02-13 23:17:00,37.4,34.5,32.45,WNW,298,2.0,3.0,89,0.00,,,0.19,VWS V13.01,2013-02-14 04:17:00,
2013-02-13 23:22:00,37.5,34.6,31.69,NW,311,2.0,3.0,89,0.00,,,0.19,VWS V13.01,2013-02-14 04:22:00,
2013-02-13 23:27:00,37.4,34.5,31.69,WNW,284,2.0,3.0,89,0.00,,,0.19,VWS V13.01,2013-02-14 04:27:00,
2013-02-13 23:32:00,37.5,34.6,31.69,WNW,286,0.0,2.0,89,0.00,,,0.19,VWS V13.01,2013-02-14 04:32:00,
2013-02-13 23:37:00,37.5,34.6,32.44,WNW,290,2.0,4.0,89,0.00,,,0.19,VWS V13.01,2013-02-14 04:37:00,
2013-02-13 23:42:00,37.4,34.5,32.44,WNW,287,1.0,2.0,89,0.00,,,0.19,VWS V13.01,2013-02-14 04:42:00,
2013-02-13 23:47:00,37.6,34.7,32.44,West,273,2.0,5.0,89,0.00,,,0.19,VWS V13.01,2013-02-14 04:47:00,
2013-02-13 23:52:00,37.6,34.7,32.44,West,275,1.0,1.0,89,0.00,,,0.00,VWS V13.01,2013-02-14 04:52:00,
2013-02-13 23:57:00,37.6,34.7,32.44,WNW,284,2.0,2.0,89,0.00,,,0.00,VWS V13.01,2013-02-14 04:57:00,